Zurück zum Katalog

STARLINK-3785

AktivKommunikationVLEO
NORAD 52375·PAYLOAD·🇺🇸 United States

Gestartet Apr 29, 2022 von Cape Canaveral Space Force Station

Loading…

Nächste Überflüge (nächste 24 Stunden)

TLE

AktuellSource: CelesTrak SupGP

Epoche: Sep 15, 2026, 01:33 UTC

1 52375C 22045AW  26258.06506944 -.00034335  00000+0 -10148-2 0  2585
2 52375  53.1599  45.2553 0001097  84.4801 131.7878 15.34396487    18

Verfolge STARLINK-3785 in Echtzeit mit AllMySat

Download on the App Store